Time,TemperatureF,DewpointF,PressureIn,WindDirection,WindDirectionDegrees,WindSpeedMPH,WindSpeedGustMPH,Humidity,HourlyPrecipIn,Conditions,Clouds,dailyrainin,SoftwareType,DateUTC
2013-04-21 00:03:00,32.0,24.0,30.39,NW,322,0.0,3.0,72,0.00,,,0.06,,2013-04-21 04:03:00,
2013-04-21 00:12:00,32.0,24.0,30.40,NW,315,0.0,1.0,72,0.00,,,0.06,,2013-04-21 04:12:00,
2013-04-21 00:23:00,32.0,24.0,30.40,NW,315,0.0,1.0,72,0.00,,,0.06,,2013-04-21 04:23:00,
2013-04-21 00:33:00,32.0,24.0,30.41,NW,315,0.0,0.0,73,0.00,,,0.06,,2013-04-21 04:33:00,
2013-04-21 00:42:00,32.0,24.0,30.41,NW,315,0.0,0.0,73,0.00,,,0.06,,2013-04-21 04:42:00,
2013-04-21 00:53:00,31.0,23.0,30.42,NNW,329,2.0,3.0,73,0.00,,,0.06,,2013-04-21 04:53:00,
2013-04-21 01:02:00,31.0,23.0,30.42,NW,322,1.0,4.0,73,0.00,,,0.06,,2013-04-21 05:02:00,
2013-04-21 01:12:00,31.0,23.0,30.42,NW,322,1.0,4.0,73,0.00,,,0.06,,2013-04-21 05:12:00,
2013-04-21 01:22:00,30.0,23.0,30.43,NW,316,0.0,0.0,74,0.00,,,0.06,,2013-04-21 05:22:00,
2013-04-21 01:32:00,30.0,23.0,30.43,WNW,288,0.0,3.0,75,0.00,,,0.06,,2013-04-21 05:32:00,
2013-04-21 01:42:00,30.0,23.0,30.43,WNW,288,0.0,3.0,75,0.00,,,0.06,,2013-04-21 05:42:00,
2013-04-21 01:52:00,30.0,23.0,30.44,West,272,1.0,2.0,75,0.00,,,0.06,,2013-04-21 05:52:00,
2013-04-21 02:01:00,30.0,23.0,30.44,West,266,0.0,3.0,74,0.00,,,0.06,,2013-04-21 06:01:00,
2013-04-21 02:12:00,30.0,23.0,30.44,West,266,0.0,3.0,74,0.00,,,0.06,,2013-04-21 06:12:00,
2013-04-21 02:22:00,30.0,23.0,30.44,West,267,0.0,0.0,74,0.00,,,0.05,,2013-04-21 06:22:00,
2013-04-21 02:32:00,30.0,23.0,30.45,West,264,0.0,2.0,74,0.00,,,0.05,,2013-04-21 06:32:00,
2013-04-21 02:42:00,30.0,23.0,30.45,West,264,0.0,2.0,74,0.00,,,0.05,,2013-04-21 06:42:00,
2013-04-21 02:52:00,29.0,21.0,30.45,West,265,0.0,1.0,73,0.00,,,0.05,,2013-04-21 06:52:00,
2013-04-21 03:01:00,29.0,21.0,30.46,West,268,0.0,4.0,73,0.00,,,0.05,,2013-04-21 07:01:00,
2013-04-21 03:12:00,29.0,21.0,30.46,West,274,0.0,2.0,72,0.00,,,0.04,,2013-04-21 07:12:00,
2013-04-21 03:22:00,29.0,21.0,30.46,West,274,0.0,2.0,72,0.00,,,0.04,,2013-04-21 07:22:00,
2013-04-21 03:32:00,29.0,21.0,30.47,West,274,0.0,0.0,72,0.00,,,0.04,,2013-04-21 07:32:00,
2013-04-21 03:42:00,29.0,21.0,30.47,West,274,0.0,0.0,72,0.00,,,0.04,,2013-04-21 07:42:00,
2013-04-21 03:52:00,29.0,21.0,30.47,West,274,0.0,0.0,73,0.00,,,0.04,,2013-04-21 07:52:00,
2013-04-21 04:01:00,29.0,21.0,30.47,West,274,0.0,0.0,73,0.00,,,0.04,,2013-04-21 08:01:00,
2013-04-21 04:12:00,29.0,21.0,30.47,West,274,0.0,0.0,73,0.00,,,0.04,,2013-04-21 08:12:00,
2013-04-21 04:21:00,29.0,21.0,30.48,West,274,0.0,0.0,72,0.00,,,0.04,,2013-04-21 08:21:00,
2013-04-21 04:32:00,29.0,21.0,30.48,West,274,0.0,0.0,73,0.00,,,0.04,,2013-04-21 08:32:00,
2013-04-21 04:42:00,29.0,21.0,30.48,West,274,0.0,0.0,73,0.00,,,0.04,,2013-04-21 08:42:00,
2013-04-21 04:52:00,28.0,21.0,30.49,West,274,0.0,0.0,74,0.00,,,0.04,,2013-04-21 08:52:00,
2013-04-21 05:02:00,28.0,21.0,30.50,West,274,0.0,0.0,76,0.00,,,0.04,,2013-04-21 09:02:00,
2013-04-21 05:12:00,28.0,21.0,30.50,West,274,0.0,0.0,76,0.00,,,0.04,,2013-04-21 09:12:00,
2013-04-21 05:21:00,27.0,21.0,30.50,West,274,0.0,0.0,77,0.00,,,0.04,,2013-04-21 09:21:00,
2013-04-21 05:32:00,27.0,21.0,30.51,West,274,0.0,0.0,78,0.00,,,0.04,,2013-04-21 09:32:00,
2013-04-21 05:43:00,27.0,21.0,30.51,West,274,0.0,0.0,78,0.00,,,0.04,,2013-04-21 09:43:00,
2013-04-21 05:53:00,27.0,21.0,30.51,West,274,0.0,0.0,79,0.00,,,0.04,,2013-04-21 09:53:00,
2013-04-21 06:03:00,27.0,22.0,30.51,SSW,199,0.0,0.0,81,0.00,,,0.04,,2013-04-21 10:03:00,
2013-04-21 06:12:00,27.0,22.0,30.51,SSW,199,0.0,0.0,81,0.00,,,0.04,,2013-04-21 10:12:00,
2013-04-21 06:22:00,27.0,22.0,30.52,SSW,199,0.0,0.0,81,0.00,,,0.02,,2013-04-21 10:22:00,
2013-04-21 06:32:00,26.0,21.0,30.53,SSW,199,0.0,0.0,82,0.00,,,0.02,,2013-04-21 10:32:00,
2013-04-21 06:42:00,26.0,21.0,30.53,SSW,199,0.0,0.0,82,0.00,,,0.02,,2013-04-21 10:42:00,
2013-04-21 06:52:00,27.0,22.0,30.54,SSW,199,1.0,2.0,81,0.00,,,0.02,,2013-04-21 10:52:00,
2013-04-21 07:03:00,26.0,21.0,30.55,SSW,199,1.0,2.0,82,0.00,,,0.02,,2013-04-21 11:03:00,
2013-04-21 07:12:00,26.0,21.0,30.55,SSW,199,1.0,2.0,82,0.00,,,0.02,,2013-04-21 11:12:00,
2013-04-21 07:22:00,27.0,22.0,30.56,SSW,199,0.0,0.0,82,0.00,,,0.02,,2013-04-21 11:22:00,
2013-04-21 07:34:00,27.0,22.0,30.57,SSW,199,0.0,0.0,82,0.00,,,0.02,,2013-04-21 11:34:00,
2013-04-21 07:42:00,27.0,22.0,30.57,SSW,199,0.0,0.0,82,0.00,,,0.02,,2013-04-21 11:42:00,
2013-04-21 07:52:00,29.0,25.0,30.58,SSW,199,0.0,0.0,83,0.00,,,0.02,,2013-04-21 11:52:00,
2013-04-21 08:02:00,30.0,25.0,30.58,SSW,199,0.0,0.0,83,0.00,,,0.02,,2013-04-21 12:02:00,
2013-04-21 08:12:00,30.0,25.0,30.58,SSW,199,0.0,0.0,83,0.00,,,0.02,,2013-04-21 12:12:00,
2013-04-21 08:22:00,32.0,26.0,30.59,SSW,199,0.0,0.0,77,0.00,,,0.01,,2013-04-21 12:22:00,
2013-04-21 08:32:00,33.0,26.0,30.60,North,360,0.0,0.0,74,0.00,,,0.01,,2013-04-21 12:32:00,
2013-04-21 08:42:00,33.0,26.0,30.60,North,360,0.0,0.0,74,0.00,,,0.01,,2013-04-21 12:42:00,
2013-04-21 08:52:00,34.0,26.0,30.61,NE,34,0.0,2.0,71,0.00,,,0.01,,2013-04-21 12:52:00,
2013-04-21 09:01:00,35.0,26.0,30.62,NNE,15,0.0,3.0,70,0.00,,,0.01,,2013-04-21 13:01:00,
2013-04-21 09:12:00,35.0,26.0,30.62,NNE,15,0.0,3.0,70,0.00,,,0.01,,2013-04-21 13:12:00,
2013-04-21 09:22:00,36.0,26.0,30.63,NE,41,0.0,6.0,67,0.00,,,0.00,,2013-04-21 13:22:00,
2013-04-21 09:32:00,36.0,26.0,30.63,NNE,17,2.0,4.0,66,0.00,,,0.00,,2013-04-21 13:32:00,
2013-04-21 09:42:00,36.0,26.0,30.63,NNE,17,2.0,4.0,66,0.00,,,0.00,,2013-04-21 13:42:00,
2013-04-21 09:52:00,36.0,25.0,30.63,North,5,0.0,3.0,65,0.00,,,0.00,,2013-04-21 13:52:00,
2013-04-21 10:02:00,36.0,25.0,30.63,NE,46,2.0,6.0,65,0.00,,,0.00,,2013-04-21 14:02:00,
2013-04-21 10:11:00,36.0,25.0,30.63,NE,46,2.0,6.0,65,0.00,,,0.00,,2013-04-21 14:11:00,
2013-04-21 10:21:00,35.0,25.0,30.63,East,88,2.0,3.0,66,0.00,,,0.00,,2013-04-21 14:21:00,
2013-04-21 10:32:00,35.0,24.0,30.64,ENE,65,0.0,4.0,64,0.00,,,0.00,,2013-04-21 14:32:00,
2013-04-21 10:42:00,35.0,24.0,30.64,ENE,65,0.0,4.0,64,0.00,,,0.00,,2013-04-21 14:42:00,
2013-04-21 10:52:00,37.0,26.0,30.65,ESE,102,1.0,5.0,64,0.00,,,0.00,,2013-04-21 14:52:00,
2013-04-21 11:02:00,38.0,26.0,30.65,SE,124,0.0,7.0,62,0.00,,,0.00,,2013-04-21 15:02:00,
2013-04-21 11:11:00,38.0,26.0,30.65,SE,124,0.0,7.0,62,0.00,,,0.00,,2013-04-21 15:11:00,
2013-04-21 11:22:00,38.0,25.0,30.66,East,88,0.0,4.0,60,0.00,,,0.00,,2013-04-21 15:22:00,
2013-04-21 11:33:00,37.0,25.0,30.66,South,191,2.0,5.0,61,0.00,,,0.00,,2013-04-21 15:33:00,
2013-04-21 11:43:00,37.0,25.0,30.66,South,191,2.0,5.0,61,0.00,,,0.00,,2013-04-21 15:43:00,
2013-04-21 11:53:00,37.0,25.0,30.66,NNE,32,2.0,4.0,62,0.00,,,0.00,,2013-04-21 15:53:00,
2013-04-21 12:03:00,38.0,25.0,30.66,East,80,1.0,5.0,59,0.00,,,0.00,,2013-04-21 16:03:00,
2013-04-21 12:12:00,38.0,25.0,30.66,East,80,1.0,5.0,59,0.00,,,0.00,,2013-04-21 16:12:00,
2013-04-21 12:23:00,38.0,25.0,30.66,ENE,67,2.0,5.0,59,0.00,,,0.00,,2013-04-21 16:23:00,
2013-04-21 12:33:00,38.0,25.0,30.65,East,83,1.0,6.0,60,0.00,,,0.00,,2013-04-21 16:33:00,
2013-04-21 12:42:00,38.0,25.0,30.65,East,83,1.0,6.0,60,0.00,,,0.00,,2013-04-21 16:42:00,
2013-04-21 12:53:00,40.0,26.0,30.65,NE,43,3.0,11.0,57,0.00,,,0.00,,2013-04-21 16:53:00,
2013-04-21 13:02:00,39.0,25.0,30.65,East,92,4.0,6.0,58,0.00,,,0.00,,2013-04-21 17:02:00,
2013-04-21 13:12:00,40.0,28.0,30.64,NE,55,6.0,8.0,61,0.00,,,0.00,,2013-04-21 17:12:00,
2013-04-21 13:23:00,40.0,28.0,30.64,NE,55,6.0,8.0,61,0.00,,,0.00,,2013-04-21 17:23:00,
2013-04-21 13:32:00,40.0,26.0,30.64,ESE,110,1.0,7.0,57,0.00,,,0.00,,2013-04-21 17:32:00,
2013-04-21 13:42:00,40.0,26.0,30.64,ESE,110,1.0,7.0,57,0.00,,,0.00,,2013-04-21 17:42:00,
2013-04-21 13:52:00,41.0,27.0,30.63,WNW,290,3.0,7.0,57,0.00,,,0.00,,2013-04-21 17:52:00,
2013-04-21 14:02:00,42.0,28.0,30.63,ENE,57,7.0,11.0,57,0.00,,,0.00,,2013-04-21 18:02:00,
2013-04-21 14:11:00,42.0,28.0,30.63,ENE,57,7.0,11.0,57,0.00,,,0.00,,2013-04-21 18:11:00,
2013-04-21 14:22:00,41.0,28.0,30.63,NNE,30,2.0,6.0,59,0.00,,,0.00,,2013-04-21 18:22:00,
2013-04-21 14:32:00,42.0,28.0,30.63,WNW,297,2.0,7.0,57,0.00,,,0.00,,2013-04-21 18:32:00,
2013-04-21 14:42:00,42.0,28.0,30.63,WNW,297,2.0,7.0,57,0.00,,,0.00,,2013-04-21 18:42:00,
2013-04-21 14:52:00,42.0,30.0,30.62,NE,51,5.0,12.0,61,0.00,,,0.00,,2013-04-21 18:52:00,
2013-04-21 15:02:00,42.0,30.0,30.61,NE,51,7.0,13.0,63,0.00,,,0.00,,2013-04-21 19:02:00,
2013-04-21 15:12:00,42.0,30.0,30.61,NE,51,7.0,13.0,63,0.00,,,0.00,,2013-04-21 19:12:00,
2013-04-21 15:22:00,42.0,31.0,30.61,NNE,23,7.0,12.0,64,0.00,,,0.00,,2013-04-21 19:22:00,
2013-04-21 15:32:00,42.0,29.0,30.60,NNW,331,5.0,12.0,59,0.00,,,0.00,,2013-04-21 19:32:00,
2013-04-21 15:42:00,42.0,29.0,30.60,NNW,331,5.0,12.0,59,0.00,,,0.00,,2013-04-21 19:42:00,
2013-04-21 15:52:00,43.0,30.0,30.59,NE,38,8.0,13.0,60,0.00,,,0.00,,2013-04-21 19:52:00,
2013-04-21 16:02:00,43.0,30.0,30.59,NE,40,9.0,17.0,60,0.00,,,0.00,,2013-04-21 20:02:00,
2013-04-21 16:11:00,43.0,30.0,30.59,NE,40,9.0,17.0,60,0.00,,,0.00,,2013-04-21 20:11:00,
2013-04-21 16:22:00,42.0,29.0,30.59,NE,34,5.0,13.0,59,0.00,,,0.00,,2013-04-21 20:22:00,
2013-04-21 16:32:00,42.0,29.0,30.58,NNE,24,8.0,14.0,59,0.00,,,0.00,,2013-04-21 20:32:00,
2013-04-21 16:42:00,42.0,29.0,30.58,NNE,24,8.0,14.0,59,0.00,,,0.00,,2013-04-21 20:42:00,
2013-04-21 16:52:00,43.0,29.0,30.58,NE,47,6.0,11.0,57,0.00,,,0.00,,2013-04-21 20:52:00,
2013-04-21 17:02:00,43.0,29.0,30.58,NE,38,7.0,14.0,58,0.00,,,0.00,,2013-04-21 21:02:00,
2013-04-21 17:12:00,43.0,29.0,30.58,NE,42,6.0,13.0,57,0.00,,,0.00,,2013-04-21 21:12:00,
2013-04-21 17:22:00,43.0,29.0,30.58,NE,42,6.0,13.0,57,0.00,,,0.00,,2013-04-21 21:22:00,
2013-04-21 17:33:00,43.0,29.0,30.58,NNE,32,7.0,14.0,57,0.00,,,0.00,,2013-04-21 21:33:00,
2013-04-21 17:43:00,43.0,29.0,30.58,NNE,32,7.0,14.0,57,0.00,,,0.00,,2013-04-21 21:43:00,
2013-04-21 17:53:00,43.0,28.0,30.57,NE,43,7.0,16.0,56,0.00,,,0.00,,2013-04-21 21:53:00,
2013-04-21 18:03:00,42.0,27.0,30.58,ENE,61,5.0,15.0,55,0.00,,,0.00,,2013-04-21 22:03:00,
2013-04-21 18:12:00,42.0,27.0,30.58,ENE,61,5.0,15.0,55,0.00,,,0.00,,2013-04-21 22:12:00,
2013-04-21 18:22:00,42.0,27.0,30.57,NE,55,7.0,16.0,56,0.00,,,0.00,,2013-04-21 22:22:00,
2013-04-21 18:33:00,42.0,27.0,30.58,East,81,10.0,15.0,55,0.00,,,0.00,,2013-04-21 22:33:00,
2013-04-21 18:43:00,42.0,27.0,30.58,East,81,10.0,15.0,55,0.00,,,0.00,,2013-04-21 22:43:00,
2013-04-21 18:53:00,41.0,26.0,30.58,NE,38,11.0,15.0,55,0.00,,,0.00,,2013-04-21 22:53:00,
2013-04-21 19:02:00,41.0,26.0,30.58,NNE,32,6.0,16.0,54,0.00,,,0.00,,2013-04-21 23:02:00,
2013-04-21 19:12:00,41.0,26.0,30.58,NNE,32,6.0,16.0,54,0.00,,,0.00,,2013-04-21 23:12:00,
2013-04-21 19:22:00,41.0,25.0,30.58,NE,52,5.0,13.0,53,0.00,,,0.00,,2013-04-21 23:22:00,
2013-04-21 19:32:00,40.0,25.0,30.58,ENE,77,5.0,12.0,54,0.00,,,0.00,,2013-04-21 23:32:00,
2013-04-21 19:42:00,40.0,25.0,30.58,ENE,77,5.0,12.0,54,0.00,,,0.00,,2013-04-21 23:42:00,
2013-04-21 19:52:00,40.0,24.0,30.58,NE,38,5.0,11.0,53,0.00,,,0.00,,2013-04-21 23:52:00,
2013-04-21 20:01:00,39.0,23.0,30.58,NE,56,5.0,11.0,53,0.00,,,0.00,,2013-04-22 00:01:00,
2013-04-21 20:12:00,39.0,23.0,30.58,NE,56,5.0,11.0,53,0.00,,,0.00,,2013-04-22 00:12:00,
2013-04-21 20:22:00,38.0,23.0,30.58,ENE,66,2.0,6.0,54,0.00,,,0.00,,2013-04-22 00:22:00,
2013-04-21 20:32:00,38.0,22.0,30.58,East,86,1.0,5.0,51,0.00,,,0.00,,2013-04-22 00:32:00,
2013-04-21 20:42:00,38.0,22.0,30.58,East,86,1.0,5.0,51,0.00,,,0.00,,2013-04-22 00:42:00,
2013-04-21 20:52:00,37.0,20.0,30.58,East,82,1.0,5.0,50,0.00,,,0.00,,2013-04-22 00:52:00,
2013-04-21 21:01:00,37.0,21.0,30.58,East,95,2.0,4.0,51,0.00,,,0.00,,2013-04-22 01:01:00,
2013-04-21 21:12:00,37.0,21.0,30.58,East,95,2.0,4.0,51,0.00,,,0.00,,2013-04-22 01:12:00,
2013-04-21 21:22:00,36.0,20.0,30.58,East,82,1.0,3.0,51,0.00,,,0.00,,2013-04-22 01:22:00,
2013-04-21 21:32:00,36.0,19.0,30.58,ESE,109,1.0,4.0,49,0.00,,,0.00,,2013-04-22 01:32:00,
2013-04-21 21:42:00,36.0,19.0,30.58,ESE,109,1.0,4.0,49,0.00,,,0.00,,2013-04-22 01:42:00,
2013-04-21 21:52:00,36.0,18.0,30.58,East,84,3.0,6.0,48,0.00,,,0.00,,2013-04-22 01:52:00,
2013-04-21 22:02:00,36.0,19.0,30.58,East,95,2.0,5.0,49,0.00,,,0.00,,2013-04-22 02:02:00,
2013-04-21 22:11:00,36.0,19.0,30.58,East,95,2.0,5.0,49,0.00,,,0.00,,2013-04-22 02:11:00,
2013-04-21 22:22:00,35.0,20.0,30.58,ESE,105,0.0,3.0,53,0.00,,,0.00,,2013-04-22 02:22:00,
2013-04-21 22:32:00,35.0,20.0,30.58,East,91,0.0,3.0,54,0.00,,,0.00,,2013-04-22 02:32:00,
2013-04-21 22:42:00,35.0,20.0,30.58,East,91,0.0,3.0,54,0.00,,,0.00,,2013-04-22 02:42:00,
2013-04-21 22:52:00,35.0,20.0,30.58,ESE,117,1.0,6.0,54,0.00,,,0.00,,2013-04-22 02:52:00,
2013-04-21 23:02:00,35.0,19.0,30.58,ESE,107,1.0,6.0,51,0.00,,,0.00,,2013-04-22 03:02:00,
2013-04-21 23:11:00,35.0,19.0,30.58,ESE,107,1.0,6.0,51,0.00,,,0.00,,2013-04-22 03:11:00,
2013-04-21 23:22:00,35.0,17.0,30.57,ESE,121,0.0,7.0,48,0.00,,,0.00,,2013-04-22 03:22:00,
2013-04-21 23:33:00,35.0,17.0,30.57,East,93,1.0,5.0,47,0.00,,,0.00,,2013-04-22 03:33:00,
2013-04-21 23:43:00,35.0,17.0,30.57,East,93,1.0,5.0,47,0.00,,,0.00,,2013-04-22 03:43:00,
2013-04-21 23:53:00,35.0,17.0,30.56,ESE,104,1.0,4.0,48,0.00,,,0.00,,2013-04-22 03:53:00,